Longville, MN

7:39 AM CDT on September 25, 2016 (GMT -0500)
Longville Municipal

Weather History for KXVG - January, 2013

Change the Weather History Date:

Monday, January 7, 2013

  Actual Average (KPWC) Record (KPWC)
Temperature  
Mean Temperature 24 °F -  
Max Temperature 37 °F 18 °F 48 °F (2003)
Min Temperature 12 °F 1 °F -29 °F (1997)
Degree Days  
Heating Degree Days 40    
Moisture  
Dew Point 17 °F    
Average Humidity 78    
Maximum Humidity 93    
Minimum Humidity 52    
Precipitation  
Precipitation 0.00 in - - ()
Sea Level Pressure  
Sea Level Pressure 29.77 in    
Wind  
Wind Speed 7 mph (SW)    
Max Wind Speed 13 mph    
Max Gust Speed 22 mph    
Visibility 10 miles    
Events      
Averages and records for this station are not official NWS values.
T = Trace of Precipitation, MM = Missing Value Source: NWS Daily Summary

Daily Weather History Graph

Daily Weather History Graph

Search for Another Location

Airport or City:

Trip Planner

Search our weather history database for the weather conditions in past years. The results will help you decide how hot, cold, wet, or windy it might be!

Date:

Astronomy

Jan. 07, 2013 Rise Set
Actual Time 8:01 AM CST 4:45 PM CST
Civil Twilight 7:26 AM CST 5:20 PM CST
Nautical Twilight 6:48 AM CST 5:58 PM CST
Astronomical Twilight 6:11 AM CST 6:35 PM CST
Moon 3:21 AM CST (1/7) 1:00 PM CST (1/7)
Length of Visible Light 9h 53m
Length of Day
8h 43m
Waning Crescent, 22% of the Moon is Illuminated
Jan 7
Waning Crescent
Jan 11
New
Jan 18
First Quarter
Jan 26
Full
Feb 3
Last Quarter

Hourly Weather History & Observations

Time (CST) Temp. Windchill Dew Point Humidity Pressure Visibility Wind Dir Wind Speed Gust Speed Precip Events Conditions
12:16 AM 14.0 °F 2.0 °F 10.4 °F 86% 29.80 in 10.0 mi SSE 9.2 mph - N/A   Clear
12:36 AM 14.0 °F 2.9 °F 10.4 °F 86% 29.79 in 10.0 mi South 8.1 mph - N/A   Clear
12:56 AM 14.0 °F 2.9 °F 10.4 °F 86% 29.78 in 10.0 mi SSE 8.1 mph - N/A   Clear
1:16 AM 14.0 °F 2.9 °F 10.4 °F 86% 29.77 in 10.0 mi SSE 8.1 mph - N/A   Clear
1:36 AM 15.8 °F 8.6 °F 12.2 °F 86% 29.76 in 10.0 mi SSE 4.6 mph - N/A   Clear
1:56 AM 15.8 °F 5.1 °F 12.2 °F 86% 29.75 in 10.0 mi SSE 8.1 mph - N/A   Clear
2:16 AM 15.8 °F 4.2 °F 12.2 °F 86% 29.75 in 10.0 mi South 9.2 mph - N/A   Clear
2:36 AM 15.8 °F 5.1 °F 12.2 °F 86% 29.75 in 10.0 mi South 8.1 mph - N/A   Clear
2:56 AM 15.8 °F 5.1 °F 12.2 °F 86% 29.74 in 10.0 mi South 8.1 mph - N/A   Clear
3:16 AM 15.8 °F 4.2 °F 12.2 °F 86% 29.73 in 10.0 mi South 9.2 mph - N/A   Clear
3:36 AM 15.8 °F 5.1 °F 12.2 °F 86% 29.73 in 10.0 mi South 8.1 mph - N/A   Clear
3:56 AM 15.8 °F 6.1 °F 12.2 °F 86% 29.72 in 10.0 mi South 6.9 mph - N/A   Clear
4:16 AM 15.8 °F 7.2 °F 12.2 °F 86% 29.72 in 10.0 mi South 5.8 mph - N/A   Clear
4:56 AM 15.8 °F 7.2 °F 12.2 °F 86% 29.72 in 10.0 mi SSW 5.8 mph - N/A   Clear
5:16 AM 15.8 °F 7.2 °F 12.2 °F 86% 29.72 in 10.0 mi South 5.8 mph - N/A   Clear
5:36 AM 17.6 °F 9.3 °F 14.0 °F 86% 29.70 in 10.0 mi South 5.8 mph - N/A   Clear
5:56 AM 19.4 °F 12.8 °F 15.8 °F 86% 29.69 in 10.0 mi SSW 4.6 mph - N/A   Clear
6:16 AM 19.4 °F 8.6 °F 15.8 °F 86% 29.69 in 10.0 mi SSW 9.2 mph - N/A   Clear
6:36 AM 19.4 °F 10.4 °F 15.8 °F 86% 29.69 in 10.0 mi SW 6.9 mph - N/A   Clear
6:56 AM 19.4 °F 9.5 °F 17.6 °F 93% 29.71 in 10.0 mi WSW 8.1 mph - N/A   Clear
7:16 AM 19.4 °F 10.4 °F 17.6 °F 93% 29.71 in 10.0 mi SSW 6.9 mph - N/A   Clear
7:36 AM 19.4 °F 11.5 °F 17.6 °F 93% 29.71 in 10.0 mi SSW 5.8 mph - N/A   Clear
7:56 AM 19.4 °F 14.3 °F 17.6 °F 93% 29.71 in 10.0 mi SSW 3.5 mph - N/A   Clear
8:16 AM 19.4 °F 12.8 °F 17.6 °F 93% 29.71 in 10.0 mi SSW 4.6 mph - N/A   Clear
8:36 AM 19.4 °F 11.5 °F 17.6 °F 93% 29.72 in 10.0 mi SSW 5.8 mph - N/A   Clear
8:56 AM 21.2 °F 13.6 °F 17.6 °F 86% 29.72 in 10.0 mi SSW 5.8 mph - N/A   Clear
9:16 AM 23.0 °F 15.8 °F 19.4 °F 86% 29.73 in 10.0 mi SSW 5.8 mph - N/A   Clear
9:36 AM 26.6 °F 20.0 °F 19.4 °F 74% 29.74 in 10.0 mi WSW 5.8 mph - N/A   Clear
9:56 AM 26.6 °F 17.5 °F 19.4 °F 74% 29.75 in 10.0 mi West 9.2 mph - N/A   Clear
10:16 AM 28.4 °F 18.5 °F 21.2 °F 74% 29.74 in 10.0 mi WSW 11.5 mph 16.1 mph N/A   Clear
10:36 AM 30.2 °F 21.9 °F 21.2 °F 69% 29.74 in 10.0 mi WSW 9.2 mph 16.1 mph N/A   Clear
10:56 AM 32.0 °F 24.8 °F 21.2 °F 64% 29.74 in 10.0 mi SW 8.1 mph - N/A   Clear
11:36 AM 33.8 °F 26.4 °F 23.0 °F 65% 29.74 in 10.0 mi WSW 9.2 mph - N/A   Clear
11:56 AM 35.6 °F 28.0 °F 24.8 °F 65% 29.73 in 10.0 mi WSW 10.4 mph - N/A   Clear
12:16 PM 35.6 °F 29.2 °F 24.8 °F 65% 29.72 in 10.0 mi WSW 8.1 mph - N/A   Clear
12:36 PM 35.6 °F 28.6 °F 24.8 °F 65% 29.72 in 10.0 mi WSW 9.2 mph - N/A   Clear
1:16 PM 35.6 °F 29.9 °F 24.8 °F 65% 29.72 in 10.0 mi WSW 6.9 mph 17.3 mph N/A   Clear
1:56 PM 37.4 °F 29.8 °F 23.0 °F 56% 29.72 in 10.0 mi WSW 11.5 mph 16.1 mph N/A   Clear
2:16 PM 37.4 °F 29.8 °F 21.2 °F 52% 29.73 in 10.0 mi West 11.5 mph 18.4 mph N/A   Clear
2:36 PM 37.4 °F 29.3 °F 21.2 °F 52% 29.74 in 10.0 mi WSW 12.7 mph 21.9 mph N/A   Clear
2:56 PM 37.4 °F 30.3 °F 21.2 °F 52% 29.73 in 10.0 mi West 10.4 mph 18.4 mph N/A   Clear
3:16 PM 37.4 °F 30.8 °F 21.2 °F 52% 29.74 in 10.0 mi WSW 9.2 mph - N/A   Clear
3:36 PM 37.4 °F 32.1 °F 21.2 °F 52% 29.75 in 10.0 mi WSW 6.9 mph 17.3 mph N/A   Clear
3:56 PM 35.6 °F 28.6 °F 21.2 °F 56% 29.76 in 10.0 mi SW 9.2 mph 18.4 mph N/A   Clear
4:16 PM 35.6 °F 29.9 °F 21.2 °F 56% 29.77 in 10.0 mi SW 6.9 mph 16.1 mph N/A   Clear
4:36 PM 33.8 °F 28.6 °F 21.2 °F 60% 29.78 in 10.0 mi WSW 5.8 mph - N/A   Clear
4:56 PM 32.0 °F 24.8 °F 21.2 °F 64% 29.79 in 10.0 mi WSW 8.1 mph - N/A   Clear
5:16 PM 30.2 °F 21.9 °F 21.2 °F 69% 29.79 in 10.0 mi SW 9.2 mph - N/A   Clear
5:36 PM 30.2 °F 21.9 °F 21.2 °F 69% 29.80 in 10.0 mi WSW 9.2 mph - N/A   Clear
5:56 PM 30.2 °F 21.3 °F 21.2 °F 69% 29.81 in 10.0 mi WSW 10.4 mph 17.3 mph N/A   Clear
6:16 PM 30.2 °F 23.4 °F 21.2 °F 69% 29.81 in 10.0 mi WSW 6.9 mph - N/A   Clear
6:36 PM 30.2 °F 22.6 °F 21.2 °F 69% 29.81 in 10.0 mi WSW 8.1 mph - N/A   Clear
6:56 PM 28.4 °F 24.6 °F 21.2 °F 74% 29.82 in 10.0 mi WSW 3.5 mph - N/A   Clear
7:16 PM 28.4 °F 22.2 °F 21.2 °F 74% 29.82 in 10.0 mi WSW 5.8 mph - N/A   Clear
7:36 PM 26.6 °F 22.6 °F 19.4 °F 74% 29.83 in 10.0 mi WSW 3.5 mph - N/A   Clear
7:56 PM 26.6 °F 20.0 °F 19.4 °F 74% 29.83 in 10.0 mi SW 5.8 mph - N/A   Clear
8:16 PM 26.6 °F 21.2 °F 19.4 °F 74% 29.84 in 10.0 mi WSW 4.6 mph - N/A   Clear
8:36 PM 26.6 °F 20.0 °F 19.4 °F 74% 29.84 in 10.0 mi SW 5.8 mph - N/A   Clear
8:56 PM 26.6 °F 21.2 °F 19.4 °F 74% 29.85 in 10.0 mi WSW 4.6 mph - N/A   Clear
9:16 PM 23.0 °F - 19.4 °F 86% 29.86 in 10.0 mi Calm Calm - N/A   Clear
9:36 PM 19.4 °F - 17.6 °F 93% 29.87 in 10.0 mi Calm Calm - N/A   Clear
9:56 PM 17.6 °F - 15.8 °F 93% 29.87 in 10.0 mi Calm Calm - N/A   Clear
10:16 PM 15.8 °F - 14.0 °F 93% 29.88 in 10.0 mi Calm Calm - N/A   Clear
10:36 PM 15.8 °F 10.2 °F 14.0 °F 93% 29.88 in 10.0 mi SW 3.5 mph - N/A   Clear
10:56 PM 15.8 °F - 12.2 °F 86% 29.88 in 10.0 mi Calm Calm - N/A   Clear
11:16 PM 12.2 °F - 10.4 °F 92% 29.88 in 10.0 mi Calm Calm - N/A   Clear
11:36 PM 12.2 °F - 10.4 °F 92% 29.88 in 10.0 mi Calm Calm - N/A   Clear
11:56 PM 12.2 °F - 10.4 °F 92% 29.88 in 10.0 mi Calm Calm - N/A   Clear